• In Österreich
  • Länderverzeichnis
  • Für 7 Tage
  • Wassertemperatur
  • Satellitenkarten
  • Wetterkarte
  • News
  • Widgets
  • user-avatar
    Anmelden

    Stündliche Wetter Plewen

    Heute, 18 Dezember, Montag

    Zeit Temperatur Niederschläge Wind Luftdruck Luftfeuchtigkeit
    00:00 +2°C° 0,1 mm 2 m/S 746 mmHg 91%
    01:00 +2°C° 0,1 mm 2 m/S 746 mmHg 90%
    02:00 +2°C° 0,1 mm 2 m/S 746 mmHg 90%
    03:00 +1°C° 0 mm 2 m/S 746 mmHg 89%
    04:00 +1°C° 0 mm 2 m/S 746 mmHg 88%
    05:00 -1°C° 0 mm 2 m/S 746 mmHg 87%
    06:00 -1°C° 0 mm 2 m/S 746 mmHg 86%
    07:00 -1°C° 0 mm 2 m/S 746 mmHg 86%
    08:00 -1°C° 0 mm 2 m/S 747 mmHg 85%
    09:00 +1°C° 0 mm 2 m/S 747 mmHg 82%
    10:00 +2°C° 0 mm 2 m/S 747 mmHg 79%
    11:00 +3°C° 0 mm 2 m/S 747 mmHg 77%
    12:00 +3°C° 0 mm 2 m/S 747 mmHg 76%
    13:00 +3°C° 0 mm 2 m/S 747 mmHg 75%
    14:00 +3°C° 0 mm 2 m/S 747 mmHg 74%
    15:00 +3°C° 0 mm 2 m/S 747 mmHg 77%
    16:00 +2°C° 0 mm 2 m/S 747 mmHg 79%
    17:00 +3°C° 0 mm 1 m/S 747 mmHg 82%
    18:00 +2°C° 0 mm 1 m/S 747 mmHg 83%
    19:00 +2°C° 0 mm 1 m/S 748 mmHg 84%
    20:00 +1°C° 0 mm 2 m/S 748 mmHg 84%
    21:00 -1°C° 0,1 mm 2 m/S 748 mmHg 85%
    22:00 -1°C° 0,1 mm 2 m/S 749 mmHg 85%
    23:00 -1°C° 0,1 mm 2 m/S 749 mmHg 85%

    Morgen, 19 Dezember, Dienstag

    Zeit Temperatur Niederschläge Wind Luftdruck Luftfeuchtigkeit
    00:00 -1°C° 0,1 mm 2 m/S 749 mmHg 85%
    01:00 -1°C° 0,1 mm 2 m/S 749 mmHg 84%
    02:00 +1°C° 0,1 mm 1 m/S 750 mmHg 84%
    03:00 +1°C° 0,1 mm 1 m/S 750 mmHg 85%
    04:00 +1°C° 0,1 mm 1 m/S 750 mmHg 85%
    05:00 +1°C° 0,1 mm 1 m/S 751 mmHg 85%
    06:00 +1°C° 0,2 mm 1 m/S 751 mmHg 86%
    07:00 +1°C° 0,2 mm 1 m/S 751 mmHg 87%
    08:00 +1°C° 0,2 mm 1 m/S 752 mmHg 88%
    09:00 -1°C° 0,3 mm 2 m/S 752 mmHg 87%
    10:00 +1°C° 0,3 mm 2 m/S 753 mmHg 86%
    11:00 +1°C° 0,3 mm 2 m/S 753 mmHg 85%
    12:00 +1°C° 0,2 mm 2 m/S 753 mmHg 85%
    13:00 +1°C° 0,2 mm 2 m/S 753 mmHg 85%
    14:00 +1°C° 0,2 mm 2 m/S 753 mmHg 85%
    15:00 +1°C° 0,2 mm 2 m/S 753 mmHg 87%
    16:00 +1°C° 0,2 mm 2 m/S 754 mmHg 89%
    17:00 -1°C° 0,2 mm 2 m/S 754 mmHg 92%
    18:00 -1°C° 0,2 mm 2 m/S 754 mmHg 91%
    19:00 -1°C° 0,2 mm 2 m/S 755 mmHg 91%
    20:00 -1°C° 0,2 mm 2 m/S 755 mmHg 91%
    21:00 -1°C° 0,1 mm 2 m/S 755 mmHg 90%
    22:00 -1°C° 0,1 mm 2 m/S 755 mmHg 90%
    23:00 -1°C° 0,1 mm 2 m/S 756 mmHg 89%

    übermorgen, 20 Dezember, Mittwoch

    Zeit Temperatur Niederschläge Wind Luftdruck Luftfeuchtigkeit
    00:00 -2°C° 0 mm 2 m/S 756 mmHg 89%
    01:00 -2°C° 0 mm 2 m/S 756 mmHg 88%
    02:00 0°C° 0 mm 1 m/S 756 mmHg 88%
    03:00 -1°C° 0 mm 1 m/S 756 mmHg 88%
    04:00 -1°C° 0 mm 1 m/S 755 mmHg 87%
    05:00 -1°C° 0 mm 1 m/S 755 mmHg 87%
    06:00 -2°C° 0 mm 1 m/S 756 mmHg 86%
    07:00 -2°C° 0 mm 1 m/S 756 mmHg 86%
    08:00 -4°C° 0 mm 2 m/S 756 mmHg 85%
    09:00 -3°C° 0 mm 2 m/S 756 mmHg 81%
    10:00 -2°C° 0 mm 2 m/S 756 mmHg 78%
    11:00 -1°C° 0 mm 2 m/S 757 mmHg 74%
    12:00 +1°C° 0 mm 2 m/S 756 mmHg 73%
    13:00 +1°C° 0 mm 2 m/S 756 mmHg 72%
    14:00 +1°C° 0 mm 2 m/S 755 mmHg 71%
    15:00 -1°C° 0 mm 2 m/S 755 mmHg 74%
    16:00 0°C° 0 mm 1 m/S 755 mmHg 77%
    17:00 -1°C° 0 mm 1 m/S 755 mmHg 80%
    18:00 -1°C° 0 mm 1 m/S 756 mmHg 80%
    19:00 -1°C° 0 mm 1 m/S 756 mmHg 81%
    20:00 -1°C° 0 mm 1 m/S 756 mmHg 81%
    21:00 -2°C° 0 mm 1 m/S 756 mmHg 81%
    22:00 -2°C° 0 mm 1 m/S 756 mmHg 81%
    23:00 -2°C° 0 mm 1 m/S 757 mmHg 81%

    21 Dezember, Donnerstag

    Zeit Temperatur Niederschläge Wind Luftdruck Luftfeuchtigkeit
    00:00 -2°C° 0 mm 1 m/S 757 mmHg 81%
    01:00 -2°C° 0 mm 1 m/S 757 mmHg 81%
    02:00 -2°C° 0 mm 1 m/S 757 mmHg 81%
    03:00 -2°C° 0 mm 1 m/S 756 mmHg 80%
    04:00 -3°C° 0 mm 1 m/S 756 mmHg 80%
    05:00 -3°C° 0 mm 1 m/S 756 mmHg 79%
    06:00 -3°C° 0 mm 1 m/S 757 mmHg 78%
    07:00 -3°C° 0 mm 1 m/S 757 mmHg 78%
    08:00 -3°C° 0 mm 1 m/S 757 mmHg 77%
    09:00 -2°C° 0 mm 1 m/S 757 mmHg 73%
    10:00 0°C° 0 mm 1 m/S 757 mmHg 69%
    11:00 +1°C° 0 mm 1 m/S 757 mmHg 65%
    12:00 -1°C° 0 mm 2 m/S 757 mmHg 64%
    13:00 +1°C° 0 mm 2 m/S 757 mmHg 64%
    14:00 +1°C° 0 mm 2 m/S 756 mmHg 63%
    15:00 -1°C° 0 mm 2 m/S 756 mmHg 67%
    16:00 0°C° 0 mm 1 m/S 756 mmHg 71%
    17:00 -1°C° 0 mm 1 m/S 756 mmHg 75%
    18:00 -1°C° 0 mm 1 m/S 756 mmHg 76%
    19:00 -4°C° 0 mm 2 m/S 756 mmHg 76%
    20:00 -4°C° 0 mm 2 m/S 757 mmHg 77%
    21:00 -4°C° 0 mm 2 m/S 756 mmHg 76%
    22:00 -4°C° 0 mm 2 m/S 756 mmHg 75%
    23:00 -4°C° 0 mm 2 m/S 756 mmHg 75%

    22 Dezember, Freitag

    Zeit Temperatur Niederschläge Wind Luftdruck Luftfeuchtigkeit
    00:00 -4°C° 0 mm 2 m/S 756 mmHg 74%
    01:00 -4°C° 0 mm 2 m/S 756 mmHg 73%
    02:00 -4°C° 0 mm 2 m/S 756 mmHg 72%
    03:00 -4°C° 0 mm 2 m/S 755 mmHg 71%
    04:00 -4°C° 0 mm 2 m/S 755 mmHg 71%
    05:00 -4°C° 0 mm 2 m/S 754 mmHg 70%
    06:00 -4°C° 0 mm 2 m/S 754 mmHg 69%
    07:00 -3°C° 0 mm 2 m/S 754 mmHg 69%
    08:00 -3°C° 0 mm 2 m/S 754 mmHg 69%
    09:00 -2°C° 0 mm 2 m/S 753 mmHg 68%
    10:00 +1°C° 0 mm 2 m/S 753 mmHg 66%
    11:00 +2°C° 0 mm 3 m/S 753 mmHg 65%
    12:00 +3°C° 0 mm 3 m/S 752 mmHg 67%
    13:00 +3°C° 0 mm 3 m/S 751 mmHg 68%
    14:00 +4°C° 0 mm 3 m/S 751 mmHg 70%
    15:00 +3°C° 0 mm 3 m/S 751 mmHg 74%
    16:00 +3°C° 0 mm 3 m/S 751 mmHg 77%
    17:00 +2°C° 0 mm 3 m/S 750 mmHg 80%
    18:00 +1°C° 0 mm 4 m/S 750 mmHg 81%
    19:00 +2°C° 0 mm 5 m/S 750 mmHg 81%
    20:00 +2°C° 0 mm 6 m/S 750 mmHg 82%
    21:00 +1°C° 0 mm 6 m/S 751 mmHg 82%
    22:00 +1°C° 0 mm 6 m/S 751 mmHg 81%
    23:00 +1°C° 0 mm 6 m/S 751 mmHg 81%

    23 Dezember, Samstag

    Zeit Temperatur Niederschläge Wind Luftdruck Luftfeuchtigkeit
    00:00 -1°C° 0 mm 6 m/S 751 mmHg 81%
    01:00 -1°C° 0 mm 6 m/S 751 mmHg 81%
    02:00 0°C° 0 mm 5 m/S 751 mmHg 81%
    03:00 -1°C° 0 mm 5 m/S 751 mmHg 81%
    04:00 -1°C° 0 mm 5 m/S 751 mmHg 82%
    05:00 -2°C° 0 mm 4 m/S 751 mmHg 82%
    06:00 -2°C° 0 mm 4 m/S 750 mmHg 81%
    07:00 -2°C° 0 mm 4 m/S 750 mmHg 80%
    08:00 -2°C° 0 mm 4 m/S 750 mmHg 80%
    09:00 -1°C° 0 mm 4 m/S 750 mmHg 76%
    10:00 0°C° 0 mm 5 m/S 749 mmHg 71%
    11:00 +1°C° 0 mm 5 m/S 749 mmHg 67%
    12:00 +2°C° 0 mm 5 m/S 748 mmHg 66%
    13:00 +2°C° 0 mm 5 m/S 747 mmHg 65%
    14:00 +3°C° 0 mm 5 m/S 746 mmHg 64%
    15:00 +3°C° 0 mm 4 m/S 746 mmHg 67%
    16:00 +1°C° 0 mm 4 m/S 746 mmHg 70%
    17:00 +1°C° 0 mm 3 m/S 746 mmHg 73%
    18:00 +1°C° 0 mm 3 m/S 745 mmHg 72%
    19:00 0°C° 0 mm 4 m/S 745 mmHg 71%
    20:00 0°C° 0 mm 4 m/S 745 mmHg 71%
    21:00 0°C° 0 mm 4 m/S 745 mmHg 73%
    22:00 0°C° 0 mm 4 m/S 745 mmHg 76%
    23:00 0°C° 0 mm 4 m/S 744 mmHg 78%
    Mehr zeigen